Location: Decatur Area Astronomy Club
(40.0275°N, 88.7810°W)
Time: 22:45:49
(UTC-05:00)

Amateur Radio Satellites - All Passes

Search period start: 20 October 2014 22:15
Search period end: 21 October 2014 22:15
Location: Decatur Area Astronomy Club, 40.0275°N, 88.7810°W

Satellite Date Start Highest point End Downlink Frequencies (MHz)
Time Altitude Azimuth
KITSAT 1 20 Oct 22:18:30 22:26:36 74° 58° (ENE) 22:34:39 435.175 FM
ZACube-1 20 Oct 22:25:36 22:30:13 86° 77° (ENE) 22:34:50 437.345 MHz
UKube-1 20 Oct 22:40:57 22:44:25 23° 265° (W) 22:47:53 145.840 MHz, 145.915 MHz
RS-15 20 Oct 22:59:42 23:10:35 69° 115° (ESE) 23:21:22 29.354 - 29.394 USB, Beacon 29.352 USB
FUNcube-1 20 Oct 23:12:10 23:16:15 31° 264° (W) 23:20:19 145.950 - 145.970 MHz USB
SO-50 20 Oct 23:13:08 23:18:00 87° 239° (WSW) 23:22:53 436.795 FM
UOSAT-12 20 Oct 23:22:13 23:25:08 16° 41° (NE) 23:28:01 437.025 FM, 437.400 FM
KITSAT 1 21 Oct 00:15:13 00:21:11 23° 256° (WSW) 00:27:08 435.175 FM
MaSat-1 21 Oct 00:42:55 00:47:11 61° 113° (ESE) 00:51:06 437.345 MHz
UOSAT-12 21 Oct 01:01:08 01:05:52 79° 240° (WSW) 01:10:30 437.025 FM, 437.400 FM
RS-15 21 Oct 01:13:43 01:23:41 38° 320° (NW) 01:33:43 29.354 - 29.394 USB, Beacon 29.352 USB
JAS-1B 21 Oct 01:29:11 01:34:09 22° 95° (E) 01:39:41 435.800 - 435.900 CW/SSB
Oscar 16 21 Oct 01:29:29 01:33:12 20° 93° (E) 01:36:52 437.025 USB, Beacon 2401.1428
Uribyol 2 21 Oct 01:43:52 01:44:31 10° 89° (E) 01:45:09 436.500 FM
ITAMSAT 1 21 Oct 01:48:08 01:49:26 11° 89° (E) 01:50:44 435.822 SSB
AO-Echo 21 Oct 01:59:28 02:03:25 21° 93° (E) 02:07:21 ?
MaSat-1 21 Oct 02:21:13 02:23:13 13° 306° (NW) 02:25:08 437.345 MHz
Oscar 19 21 Oct 02:22:40 02:27:46 64° 102° (ESE) 02:32:50 437.125 CW, 437.150 USB
AO-27 21 Oct 02:29:49 02:34:25 30° 96° (E) 02:38:58 436.795 MHz FM
Oscar 16 21 Oct 03:07:52 03:12:46 47° 289° (WNW) 03:17:38 437.025 USB, Beacon 2401.1428
JAS-1B 21 Oct 03:18:39 03:25:00 64° 288° (WNW) 03:32:32 435.800 - 435.900 CW/SSB
Gurwin Techsat 1B 21 Oct 03:18:55 03:24:01 46° 99° (E) 03:29:06 435.225 FM
Uribyol 2 21 Oct 03:19:23 03:24:38 87° 285° (WNW) 03:29:50 436.500 FM
ITAMSAT 1 21 Oct 03:24:17 03:29:33 84° 285° (WNW) 03:34:45 435.822 SSB
PCSat 21 Oct 03:27:03 03:28:30 11° 102° (ESE) 03:29:58 145.825 MHz
TMSAT-1 21 Oct 03:32:59 03:38:05 46° 99° (E) 03:43:09 436.925 FM
RS-15 21 Oct 03:33:22 03:40:29 19° 353° (N) 03:47:42 29.354 - 29.394 USB, Beacon 29.352 USB
AO-Echo 21 Oct 03:37:18 03:42:22 48° 289° (WNW) 03:47:27 ?
Oscar 19 21 Oct 04:03:33 04:06:33 16° 298° (WNW) 04:09:33 437.125 CW, 437.150 USB
AO-27 21 Oct 04:09:16 04:13:53 32° 292° (WNW) 04:18:28 436.795 MHz FM
OPAL 21 Oct 04:12:04 04:16:15 26° 64° (ENE) 04:20:25 ?
AO-7 21 Oct 04:33:45 04:41:23 39° 99° (E) 04:49:00 29.400 - 29.500 MHz
Sapphire 21 Oct 04:42:50 04:48:04 54° 113° (ESE) 04:53:21 437.095 MHz 1200 baud AX-25 AFSK
Gurwin Techsat 1B 21 Oct 04:59:36 05:03:40 23° 295° (WNW) 05:07:43 435.225 FM
Uribyol 2 21 Oct 05:01:44 05:03:16 11° 302° (WNW) 05:04:49 436.500 FM
PCSat 21 Oct 05:05:40 05:11:04 89° 296° (WNW) 05:16:32 145.825 MHz
ITAMSAT 1 21 Oct 05:06:55 05:08:11 11° 302° (WNW) 05:09:27 435.822 SSB
TMSAT-1 21 Oct 05:13:38 05:17:41 23° 295° (WNW) 05:21:43 436.925 FM
Uosat F 21 Oct 05:18:19 05:23:22 68° 102° (ESE) 05:28:22 435.120 FM
RS-15 21 Oct 05:49:15 05:58:17 27° 30° (NNE) 06:07:31 29.354 - 29.394 USB, Beacon 29.352 USB
STRAND 1 21 Oct 05:50:05 05:53:52 21° 64° (ENE) 05:57:40 ?
OPAL 21 Oct 05:50:06 05:54:55 39° 260° (W) 05:59:43 ?
Hamsat 21 Oct 06:02:02 06:05:29 24° 95° (E) 06:08:55 145.90 MHz
JAS-2 21 Oct 06:05:38 06:13:12 55° 99° (E) 06:20:50 435.800 - 435.900 CW/SSB, 435.910 FM
AO-7 21 Oct 06:26:25 06:34:14 47° 297° (WNW) 06:42:03 29.400 - 29.500 MHz
Sapphire 21 Oct 06:27:30 06:31:48 24° 312° (NW) 06:36:09 437.095 MHz 1200 baud AX-25 AFSK
PCSat 21 Oct 06:52:04 06:55:16 16° 317° (NW) 06:58:29 145.825 MHz
Uosat F 21 Oct 06:58:46 07:01:33 15° 299° (WNW) 07:04:20 435.120 FM
SO-67 21 Oct 07:01:13 07:02:33 12° 92° (E) 07:03:52 435.3500 MHz FM
STRAND 1 21 Oct 07:27:48 07:32:42 47° 261° (W) 07:37:40 ?
Hamsat 21 Oct 07:37:53 07:41:21 26° 290° (WNW) 07:44:50 145.90 MHz
JAS-2 21 Oct 07:51:11 07:57:49 34° 296° (WNW) 08:04:35 435.800 - 435.900 CW/SSB, 435.910 FM
RS-15 21 Oct 08:01:34 08:12:47 77° 56° (ENE) 08:24:28 29.354 - 29.394 USB, Beacon 29.352 USB
SO-67 21 Oct 08:32:30 08:35:40 35° 287° (WNW) 08:38:49 435.3500 MHz FM
Saudisat 1A 21 Oct 08:41:18 08:45:39 69° 120° (ESE) 08:50:03 436.775 MHz
HO-68 21 Oct 09:37:36 09:44:37 53° 101° (E) 09:51:34 435.675 MHz FM
Oscar 11 21 Oct 09:39:09 09:41:44 15° 92° (E) 09:44:18 145.825 FM, Beacon 2401.500 USB
PANSAT 21 Oct 10:06:19 10:08:06 13° 172° (S) 10:09:52 not established
RS-15 21 Oct 10:15:09 10:24:05 29° 256° (WSW) 10:33:21 29.354 - 29.394 USB, Beacon 29.352 USB
ZACube-1 21 Oct 10:16:58 10:19:44 17° 92° (E) 10:22:26 437.345 MHz
Saudisat 1A 21 Oct 10:22:59 10:25:41 16° 318° (NW) 10:28:24 436.775 MHz
UKube-1 21 Oct 10:28:38 10:32:59 61° 101° (ESE) 10:37:18 145.840 MHz, 145.915 MHz
MaSat-1 21 Oct 10:30:46 10:33:26 78° 246° (WSW) 10:35:52 437.345 MHz
FUNcube-1 21 Oct 11:01:35 11:05:48 53° 100° (E) 11:09:53 145.950 - 145.970 MHz USB
Oscar 11 21 Oct 11:14:02 11:18:07 43° 288° (WNW) 11:22:11 145.825 FM, Beacon 2401.500 USB
HO-68 21 Oct 11:25:53 11:31:57 31° 299° (WNW) 11:38:01 435.675 MHz FM
PANSAT 21 Oct 11:45:29 11:47:32 14° 185° (S) 11:49:35 not established
ZACube-1 21 Oct 11:52:18 11:56:19 39° 289° (WNW) 12:00:13 437.345 MHz
Oscar 19 21 Oct 12:04:09 12:05:29 11° 59° (ENE) 12:06:48 437.125 CW, 437.150 USB
UKube-1 21 Oct 12:06:43 12:08:38 13° 298° (WNW) 12:10:34 145.840 MHz, 145.915 MHz
PCSat 21 Oct 12:13:18 12:15:11 12° 38° (NE) 12:17:03 145.825 MHz
JAS-1B 21 Oct 12:17:27 12:20:28 14° 60° (ENE) 12:23:24 435.800 - 435.900 CW/SSB
FUNcube-1 21 Oct 12:39:37 12:41:41 13° 297° (WNW) 12:43:43 145.950 - 145.970 MHz USB
KITSAT 1 21 Oct 12:45:39 12:53:28 57° 113° (ESE) 13:01:19 435.175 FM
Oscar 16 21 Oct 12:45:42 12:50:03 28° 67° (ENE) 12:54:25 437.025 USB, Beacon 2401.1428
Uribyol 2 21 Oct 12:59:37 13:02:53 17° 62° (ENE) 13:06:10 436.500 FM
ISS 21 Oct 13:01:32 13:03:00 12° 129° (SE) 13:04:28 145.800 FM
ITAMSAT 1 21 Oct 13:04:31 13:07:54 18° 62° (ENE) 13:11:17 435.822 SSB
AO-Echo 21 Oct 13:12:06 13:15:56 24° 66° (ENE) 13:19:51 ?
SO-50 21 Oct 13:27:48 13:31:50 34° 114° (ESE) 13:36:00 436.795 FM
Sapphire 21 Oct 13:31:29 13:36:34 38° 54° (NE) 13:41:36 437.095 MHz 1200 baud AX-25 AFSK
Oscar 19 21 Oct 13:38:50 13:44:00 86° 76° (ENE) 13:49:11 437.125 CW, 437.150 USB
AO-27 21 Oct 13:47:15 13:52:09 44° 70° (ENE) 13:57:05 436.795 MHz FM
AO-7 21 Oct 13:47:15 13:48:58 11° 43° (NE) 13:50:40 29.400 - 29.500 MHz
PCSat 21 Oct 13:54:19 13:59:43 63° 59° (ENE) 14:05:04 145.825 MHz
JAS-1B 21 Oct 14:04:20 14:10:34 76° 256° (WSW) 14:16:16 435.800 - 435.900 CW/SSB
Oscar 16 21 Oct 14:24:35 14:29:16 34° 263° (W) 14:33:57 437.025 USB, Beacon 2401.1428
ISS 21 Oct 14:35:58 14:39:17 70° 325° (NW) 14:42:37 145.800 FM
Uribyol 2 21 Oct 14:36:40 14:41:49 62° 258° (WSW) 14:47:01 436.500 FM
Oscar 10/S400 21 Oct 14:37:08 14:54:55 45° 156° (SSE) 15:22:16 145.825 - 145.975 CW/USB, Beacon 145.810 USB
Gurwin Techsat 1B 21 Oct 14:39:18 14:44:34 68° 74° (ENE) 14:49:51 435.225 FM
ITAMSAT 1 21 Oct 14:41:46 14:46:53 59° 259° (W) 14:52:03 435.822 SSB
KITSAT 1 21 Oct 14:41:55 14:49:12 36° 313° (NW) 14:56:32 435.175 FM
AO-Echo 21 Oct 14:50:00 14:54:27 37° 263° (W) 14:59:05 ?
TMSAT-1 21 Oct 14:53:02 14:58:16 67° 74° (ENE) 15:03:33 436.925 FM
Uosat F 21 Oct 14:56:50 14:57:55 11° 58° (ENE) 14:59:00 435.120 FM
SO-50 21 Oct 15:08:34 15:12:26 27° 313° (NW) 15:16:24 436.795 FM
UOSAT-12 21 Oct 15:11:46 15:15:59 36° 115° (ESE) 15:20:16 437.025 FM, 437.400 FM
Sapphire 21 Oct 15:15:10 15:19:50 30° 251° (WSW) 15:24:28 437.095 MHz 1200 baud AX-25 AFSK
Oscar 19 21 Oct 15:23:30 15:23:58 10° 271° (W) 15:24:26 437.125 CW, 437.150 USB
AO-27 21 Oct 15:27:50 15:31:49 22° 266° (W) 15:35:50 436.795 MHz FM
AO-7 21 Oct 15:31:55 15:39:46 50° 64° (ENE) 15:47:39 29.400 - 29.500 MHz
PCSat 21 Oct 15:39:08 15:42:34 17° 256° (WSW) 15:45:58 145.825 MHz
ISS 21 Oct 16:14:15 16:16:29 16° 343° (NNW) 16:18:42 145.800 FM
JAS-2 21 Oct 16:19:22 16:23:29 20° 58° (ENE) 16:27:54 435.800 - 435.900 CW/SSB, 435.910 FM
Gurwin Techsat 1B 21 Oct 16:22:13 16:25:00 14° 270° (W) 16:27:47 435.225 FM
Uosat F 21 Oct 16:30:52 16:35:53 87° 75° (ENE) 16:40:57 435.120 FM
TMSAT-1 21 Oct 16:35:50 16:38:39 14° 270° (W) 16:41:29 436.925 FM
KITSAT 1 21 Oct 16:44:36 16:47:30 12° 340° (NNW) 16:50:23 435.175 FM
UOSAT-12 21 Oct 16:52:10 16:56:11 28° 312° (NW) 17:00:15 437.025 FM, 437.400 FM
Hamsat 21 Oct 16:55:29 16:58:16 17° 67° (ENE) 17:01:03 145.90 MHz
Saudisat 1A 21 Oct 17:08:37 17:12:53 45° 53° (NE) 17:17:07 436.775 MHz
AO-7 21 Oct 17:25:18 17:32:42 36° 262° (W) 17:40:10 29.400 - 29.500 MHz
ISS 21 Oct 17:53:03 17:54:16 12° 3° (N) 17:55:29 145.800 FM
OPAL 21 Oct 18:00:18 18:05:12 56° 103° (ESE) 18:10:03 ?
JAS-2 21 Oct 18:02:06 18:07:45 66° 259° (W) 18:14:13 435.800 - 435.900 CW/SSB, 435.910 FM
Hamsat 21 Oct 18:29:58 18:33:55 39° 262° (W) 18:37:52 145.90 MHz
KITSAT 1 21 Oct 18:46:46 18:47:35 10° 13° (NNE) 18:48:24 435.175 FM
Saudisat 1A 21 Oct 18:49:04 18:52:06 18° 249° (WSW) 18:55:08 436.775 MHz
SO-67 21 Oct 19:03:56 19:07:19 60° 76° (ENE) 19:10:43 435.3500 MHz FM
ISS 21 Oct 19:29:13 19:31:56 22° 23° (NNE) 19:34:38 145.800 FM
STRAND 1 21 Oct 19:38:47 19:43:55 62° 101° (ESE) 19:49:00 ?
OPAL 21 Oct 19:40:24 19:43:38 18° 300° (WNW) 19:46:50 ?
HO-68 21 Oct 20:05:40 20:12:04 37° 64° (ENE) 20:18:31 435.675 MHz FM
Oscar 11 21 Oct 20:34:47 20:36:35 12° 63° (ENE) 20:38:23 145.825 FM, Beacon 2401.500 USB
KITSAT 1 21 Oct 20:39:45 20:46:27 27° 41° (NE) 20:53:06 435.175 FM
ISS 21 Oct 21:05:33 21:08:51 58° 221° (SW) 21:12:07 145.800 FM
ZACube-1 21 Oct 21:13:17 21:15:53 15° 64° (ENE) 21:18:29 437.345 MHz
STRAND 1 21 Oct 21:19:24 21:22:34 17° 298° (WNW) 21:25:44 ?
UKube-1 21 Oct 21:23:20 21:27:31 48° 72° (ENE) 21:31:43 145.840 MHz, 145.915 MHz
HO-68 21 Oct 21:52:58 21:59:38 42° 261° (W) 22:06:24 435.675 MHz FM
FUNcube-1 21 Oct 21:56:52 22:01:11 41° 72° (ENE) 22:05:28 145.950 - 145.970 MHz USB
SO-50 21 Oct 21:59:38 22:03:55 30° 49° (NE) 22:08:14 436.795 FM
